This demonstration page uses our WeatherBlox Daily Observations layout. Learn more.

Left ArrowRight Arrow

Hourly Observations for August 19, 2022

Temp ( °F °C ) Dew Point ( °F °C ) Humidity (%) Winds ( mph kmh ) Pressure ( in mb ) Visibility ( mi km ) Precip ( " mm )
12:56 am 00:56 Mostly Clear 69 20.6 61 16.1 75 75 N 5 7 29.92 1013 10 16 0.00 0.00
1:56 am 01:56 Clear 67 19.4 58 14.4 73 73 NNE 7 11 29.91 1013 10 16 0.00 0.00
2:56 am 02:56 Mostly Cloudy 65 18.3 59 15 81 81 N 8 13 29.89 1012 10 16 0.00 0.00
3:56 am 03:56 Mostly Cloudy 65 18.3 59 15 81 81 Calm 29.88 1012 10 16 0.00 0.00
4:56 am 04:56 Mostly Cloudy 65 18.3 59 15 81 81 Calm 29.88 1012 10 16 0.00 0.00
5:56 am 05:56 Mostly Cloudy 64 17.8 59 15 84 84 NW 6 9 29.88 1012 10 16 0.00 0.00
6:56 am 06:56 Mostly Sunny 63 17.2 59 15 87 87 NW 6 9 29.89 1012 10 16 0.00 0.00
7:56 am 07:56 Sunny 64 17.8 60 15.6 87 87 NW 5 7 29.89 1012 10 16 0.00 0.00
8:56 am 08:56 Mostly Sunny 66 18.9 61 16.1 84 84 N 12 19 29.92 1013 10 16 0.00 0.00
9:56 am 09:56 Mostly Cloudy 70 21.1 61 16.1 73 73 NNW 10 17 29.94 1014 10 16 0.00 0.00
10:56 am 10:56 Mostly Cloudy 72 22.2 62 16.7 71 71 Calm 29.95 1014 10 16 0.00 0.00
11:56 am 11:56 Mostly Cloudy 76 24.4 62 16.7 62 62 NE 6 9 29.93 1014 10 16 0.00 0.00
12:56 pm 12:56 Partly Cloudy with Light Rain 79 26.1 61 16.1 54 54 NE 6 9 29.92 1013 10 16 0.01 0.13
1:56 pm 13:56 Mostly Sunny 83 28.3 61 16.1 48 48 VRB 6 9 29.91 1013 10 16 0.01 0.13
2:56 pm 14:56 Mostly Cloudy 84 28.9 57 13.9 40 40 NNE 13 20 29.89 1012 10 16 0.00 0.00
3:56 pm 15:56 Partly Cloudy 84 28.9 57 13.9 40 40 N 7 11 29.88 1012 10 16 0.00 0.00
4:56 pm 16:56 Partly Cloudy 83 28.3 57 13.9 41 41 NE 5 7 29.87 1012 10 16 0.00 0.00
5:56 pm 17:56 Mostly Cloudy 85 29.4 54 12.2 35 35 N 13 20 29.87 1012 10 16 0.00 0.00
6:56 pm 18:56 Mostly Cloudy 83 28.3 51 10.6 33 33 N 13 20 29.88 1012 10 16 0.00 0.00
7:56 pm 19:56 Mostly Sunny 77 25 55 12.8 47 47 N 7 11 29.90 1012 10 16 0.00 0.00
8:56 pm 20:56 Clear 70 21.1 56 13.3 61 61 N 6 9 29.93 1013 10 16 0.00 0.00
9:56 pm 21:56 Clear 67 19.4 54 12.2 63 63 N 9 15 29.95 1014 10 16 0.00 0.00
10:56 pm 22:56 Clear 65 18.3 55 12.8 70 70 SSE 3 6 29.98 1015 10 16 0.00 0.00
11:56 pm 23:56 Clear 67 19.4 55 12.8 66 66 Calm 29.98 1015 10 16 0.00 0.00

Powered by AerisWeather